This demonstration page uses our WeatherBlox Daily Observations layout. Learn more.

Left ArrowRight Arrow

Hourly Observations for April 4, 2019

Temp ( °F °C ) Dew Point ( °F °C ) Humidity (%) Winds ( mph kmh ) Pressure ( in mb ) Visibility ( mi km ) Precip ( " mm )
12:52 am 00:52 Cloudy with Light Rain 48 8.9 37 2.8 66 66 ESE 3 6 30.10 1019 10 16 0.00 0.03
1:52 am 01:52 Cloudy with Light Rain 47 8.3 37 2.8 69 69 E 8 13 30.10 1019 10 16 0.00 0.03
2:52 am 02:52 Cloudy 47 8.3 37 2.8 69 69 E 8 13 30.08 1019 10 16 0.00 0.03
3:52 am 03:52 Cloudy 47 8.3 37 2.8 69 69 E 6 9 30.09 1019 10 16 0.00 0.00
4:52 am 04:52 Mostly Cloudy 46 7.8 37 2.8 71 71 VRB 7 11 30.08 1019 10 16 0.00 0.00
5:52 am 05:52 Cloudy 46 7.8 37 2.8 71 71 ENE 8 13 30.09 1019 10 16 0.00 0.00
6:52 am 06:52 Cloudy 46 7.8 37 2.8 71 71 E 6 9 30.09 1019 10 16 0.00 0.00
7:52 am 07:52 Cloudy 46 7.8 37 2.8 71 71 E 8 13 30.10 1019 10 16 0.00 0.00
8:52 am 08:52 Cloudy 47 8.3 38 3.3 71 71 ESE 7 11 30.11 1020 10 16 0.00 0.00
9:52 am 09:52 Cloudy 47 8.3 38 3.3 71 71 ESE 9 15 30.10 1019 10 16 0.00 0.00
10:52 am 10:52 Cloudy 48 8.9 39 3.9 71 71 E 10 17 30.11 1020 10 16 0.00 0.00
11:35 am 11:35 Cloudy 48 8.9 40 4.4 74 74 ESE 9 15 30.13 1020 10 16 0.00 0.00
11:52 am 11:52 Cloudy 49 9.4 40 4.4 71 71 ESE 10 17 30.11 1020 10 16 0.00 0.00
12:11 pm 12:11 Cloudy 48 8.9 41 5 77 77 ESE 9 15 30.13 1020 10 16 0.00 0.00
12:52 pm 12:52 Cloudy 48 8.9 41 5 77 77 SE 7 11 30.10 1019 10 16 0.00 0.00
1:52 pm 13:52 Cloudy 49 9.4 42 5.6 77 77 ESE 7 11 30.09 1019 10 16 0.00 0.00
2:52 pm 14:52 Cloudy 50 10 43 6.1 77 77 Calm 30.08 1019 10 16 0.00 0.00
3:52 pm 15:52 Cloudy 51 10.6 44 6.7 77 77 VRB 3 6 30.05 1018 10 16 0.00 0.00
4:52 pm 16:52 Cloudy 52 11.1 45 7.2 77 77 ESE 6 9 30.04 1017 10 16 0.00 0.00
5:44 pm 17:44 Cloudy 52 11.1 46 7.8 80 80 Calm 30.05 1018 9 14 0.00 0.00
5:52 pm 17:52 Cloudy 52 11.1 46 7.8 80 80 Calm 30.04 1017 9 14 0.00 0.00
6:52 pm 18:52 Cloudy with Mist and Fog 52 11.1 46 7.8 80 80 NNW 3 6 30.05 1018 5 8 0.00 0.00
7:52 pm 19:52 Cloudy with Mist and Fog 51 10.6 46 7.8 83 83 N 6 9 30.05 1018 3 5 0.00 0.00
8:52 pm 20:52 Cloudy with Mist and Fog 50 10 46 7.8 86 86 N 3 6 30.06 1018 3 5 0.00 0.00
9:11 pm 21:11 Cloudy with Mist and Fog 50 10 46 7.8 86 86 N 5 7 30.06 1018 3 4 0.00 0.00
9:18 pm 21:18 Cloudy with Mist and Fog 50 10 46 7.8 86 86 N 5 7 30.06 1018 2 3 0.00 0.00
9:49 pm 21:49 Mostly Cloudy with Mist and Fog 48 9 46 8 94 94 NNE 3 6 30.07 1018 1 1 0.00 0.00
9:52 pm 21:52 Mostly Cloudy with Fog 49 9.4 47 8.3 93 93 NNE 3 6 30.06 1018 1 1 0.00 0.00
10:52 pm 22:52 Mostly Cloudy with Fog 49 9.4 47 8.3 93 93 NNW 3 6 30.06 1018 0 0 0.00 0.00
11:52 pm 23:52 Mostly Cloudy with Fog 49 9.4 46 7.8 90 90 N 6 9 30.06 1018 0 0 0.00 0.00

Powered by AerisWeather